Location: Rounton
(54.4000°N, 1.3500°W)
Time: 07:09:17
(UTC+00:00)

Vanguard 3 - Pass Details

Date: 05 December 2021
Orbit: 508 x 3260 km, 33.3° (Epoch: 16 January)

Event Time Altitude Azimuth Distance (km) Brightness Sun altitude
Rises 07:26:06 0° 261° (W) 7,194 11.5 -6.0°
Reaches altitude 10° 07:32:12 10° 252° (WSW) 6,007 11.2 -5.2°
Maximum altitude 07:45:36 27° 205° (SSW) 3,968 10.8 -3.6°
Drops below altitude 10° 07:55:24 10° 154° (SSE) 4,310 12.1 -2.4°
Sets 07:58:54 0° 142° (SE) 4,915 13.1 -2.0°
